Regional Weather Roundup
Issued by NWS

Home | Current Version | Previous Version | Graphics & Text | Print | Product List | Glossary On
Versions: 1 2 3 4 5 6 7 8 9 10 11 12 13 14 15 16 17 18 19 20 21 22 23 24 25 26 27 28 29 30 31 32 33 34 35 36 37 38 39 40 41 42 43 44 45 46 47 48 49 50
000
ASUS43 KBIS 031810
RWRND

NORTH DAKOTA REGIONAL WEATHER ROUNDUP
NATIONAL WEATHER SERVICE BISMARCK ND
1200 PM CST TUE MAR 03 2015

NOTE: "FAIR" INDICATES FEW OR NO CLOUDS BELOW 12,000 FEET WITH NO
SIGNIFICANT WEATHER AND/OR OBSTRUCTIONS TO VISIBILITY.


NDZ001>003-009>011-017-031900-
NORTHWEST NORTH DAKOTA

CITY           SKY/WX    TMP DP  RH WIND       PRES   REMARKS
WILLISTON      CLOUDY     7  -5  57 NW28G35   30.09F WCI -16
6HR MIN TEMP:   2; 6HR MAX TEMP:   8; 6HR PCP: TRACE;

MINOT          LGT SNOW   4  -5  66 W29G37    30.00S WCI -20
MINOT AFB      BLWGSNOW   1  -4  78 NW32G39   29.99S VSB 1   WCI -25
$$

NDZ018>021-031>035-040>046-031900-
SOUTHWEST NORTH DAKOTA

CITY           SKY/WX    TMP DP  RH WIND       PRES   REMARKS
BISMARCK       PTSUNNY   11  -4  51 NW28G38   30.04F WCI -10
6HR MIN TEMP:   7; 6HR MAX TEMP:  11;

DICKINSON      PTSUNNY   11  -5  48 W30G39    29.98F WCI -11
GARRISON         N/A      6  -3  66 NW26G40   30.01S WCI -16
6HR MIN TEMP:   1; 6HR MAX TEMP:   6;

HETTINGER ARPT MOSUNNY   13  -4  46 NW25G37   30.02R WCI  -7
$$

NDZ004>008-012>016-024-026-027-054-031900-
NORTHEAST NORTH DAKOTA

CITY           SKY/WX    TMP DP  RH WIND       PRES   REMARKS
GRAND FORKS    MOSUNNY   12   0  58 NW30G36   29.89S WCI -10
GRND FRKS AFB  SUNNY     11  -3  53 NW23G33   29.90R WCI  -9
DEVILS LAKE    PTSUNNY    3  -8  60 NW25G36   29.92R WCI -20
$$

NDZ022-023-025-028>030-036>039-047>053-031900-
SOUTHEAST NORTH DAKOTA

CITY           SKY/WX    TMP DP  RH WIND       PRES   REMARKS
FARGO          FLURRIES  14   3  61 NW31G38   29.90S WCI  -7
6HR MIN TEMP:  13; 6HR MAX TEMP:  19; 6HR PCP: TRACE;

JAMESTOWN      CLOUDY     8  -3  61 NW29G36   29.93S WCI -15
$$



USA.gov is the U.S. government's official web portal to all federal, state and local government web resources and services.